EW9434 Weather Reports


time (UTC)temp
C
wind
direction
speed
KPH
gust
KPH
rain 1hr
cm
rain 24hr
cm
rain mn
cm
humidity
%
barometer
mb
20260506201746 14 288 3.2 8.0 0.00 1.88 1.07 53 1012.4
20260506201520 13 288 3.2 9.7 0.00 1.91 1.07 53 1012.7
20260506201502 14 273 3.2 12.9 0.00 1.88 1.07 55 1012.4
20260506200717 13 273 4.8 12.9 0.00 1.91 1.07 53 1012.5
20260506200652 14 273 3.2 9.7 0.00 1.91 1.07 55 1012.4
20260506200012 13 273 3.2 9.7 0.00 1.91 1.07 55 1012.7
20260506195645 14 273 3.2 8.0 0.00 1.93 1.07 53 1012.5
20260506195142 14 273 3.2 8.0 0.00 1.93 1.07 56 1012.4
20260506194618 14 288 3.2 11.3 0.00 1.96 1.07 53 1012.3
20260506194547 14 289 1.6 8.0 0.00 2.44 1.07 54 1012.6
20260506194113 15 288 3.2 11.3 0.00 1.98 1.07 49 1012.3
20260506193611 15 140 4.8 11.3 0.00 2.03 1.07 54 1012.3
20260506193101 15 146 4.8 11.3 0.00 2.44 1.07 52 1012.5
20260506193044 15 273 4.8 11.3 0.00 2.21 1.07 52 1012.2
20260506192541 15 186 3.2 11.3 0.00 2.36 1.07 49 1012.0
20260506192015 15 184 3.2 11.3 0.00 2.39 1.07 54 1012.0
20260506191553 15 75 3.2 16.1 0.00 2.44 1.07 53 1012.3
20260506191513 15 184 4.8 16.1 0.00 2.44 1.07 53 1012.0
20260506191009 15 161 4.8 16.1 0.00 2.44 1.07 52 1012.1
20260506190729 15 191 4.8 20.9 0.00 2.44 1.07 51 1012.1
20260506190032 15 249 4.8 20.9 0.00 2.44 1.07 54 1012.3
20260506185937 15 189 4.8 20.9 0.00 2.44 1.07 56 1012.0
20260506185436 15 226 4.8 19.3 0.00 2.44 1.07 53 1012.1
20260506184906 15 199 3.2 17.7 0.00 2.44 1.07 52 1012.1
20260506184600 15 180 4.8 17.7 0.00 2.44 1.07 50 1012.4
20260506184405 15 222 4.8 12.9 0.00 2.44 1.07 52 1012.1
20260506183837 15 208 6.4 12.9 0.00 2.44 1.07 52 1012.0
20260506183336 15 208 8.0 19.3 0.00 2.44 1.07 52 1011.9
20260506183044 15 132 4.8 19.3 0.00 2.44 1.07 54 1012.1
20260506182807 16 200 4.8 19.3 0.00 2.44 1.07 48 1011.9
20260506182307 16 163 3.2 12.9 0.00 2.44 1.07 55 1011.8
20260506181741 16 313 3.2 12.9 0.00 2.44 1.07 54 1011.8
20260506181504 15 315 1.6 12.9 0.00 2.44 1.07 54 1012.1
20260506181455 15 295 4.8 12.9 0.00 2.44 1.07 54 1012.0
20260506180733 15 234 4.8 14.5 0.00 2.44 1.07 53 1012.1
20260506180652 15 134 4.8 14.5 0.00 2.44 1.07 55 1012.0
20260506180003 15 187 4.8 14.5 0.00 2.44 1.07 54 1012.3
20260506175703 15 193 3.2 9.7 0.00 2.44 1.07 51 1012.1
20260506175158 16 156 3.2 8.0 0.00 2.44 1.07 55 1012.2
20260506174655 16 192 4.8 8.0 0.00 2.44 1.07 53 1012.3
20260506174623 16 236 4.8 11.3 0.00 2.44 1.07 55 1012.3
20260506174521 16 196 4.8 8.0 0.00 2.44 1.07 53 1012.6
20260506173600 16 345 4.8 11.3 0.00 2.44 1.07 53 1012.4
20260506173033 16 189 3.2 11.3 0.00 2.44 1.07 52 1012.4
20260506173009 15 190 3.2 9.7 0.00 2.44 1.07 52 1012.7
20260506172751 15 222 4.8 16.1 0.00 2.44 1.07 57 1012.2
20260506172027 15 353 4.8 16.1 0.00 2.44 1.07 52 1012.3
20260506171540 15 332 4.8 14.5 0.00 2.44 1.07 56 1012.6
20260506171502 15 329 4.8 14.5 0.00 2.44 1.07 55 1012.4
20260506170936 15 18 4.8 11.3 0.00 2.44 1.07 52 1012.5
20260506170447 15 319 4.8 9.7 0.00 2.44 1.07 55 1012.6
20260506170051 15 332 4.8 9.7 0.00 2.44 1.07 57 1012.8
20260506165903 15 194 3.2 11.3 0.00 2.44 1.07 57 1012.5
20260506165333 14 228 4.8 11.3 0.00 2.44 1.07 55 1012.7
20260506164832 14 210 4.8 14.5 0.00 2.44 1.07 54 1012.7
20260506164546 14 326 4.8 14.5 0.00 2.44 1.07 52 1013.0
20260506164319 14 213 4.8 14.5 0.00 2.44 1.07 54 1012.7
20260506164047 14 325 4.8 14.5 0.00 2.44 1.07 54 1012.5
20260506163253 14 288 4.8 14.5 0.00 2.44 1.07 56 1012.5
20260506163104 13 304 3.2 8.0 0.00 2.44 1.07 56 1012.9
20260506162751 14 207 4.8 14.5 0.00 2.44 1.07 57 1012.7
20260506162229 14 36 4.8 14.5 0.00 2.44 1.07 60 1012.6
20260506161655 14 358 4.8 12.9 0.00 2.44 1.07 59 1012.6
20260506161525 13 330 3.2 12.9 0.00 2.44 1.07 60 1012.8
20260506161151 14 212 4.8 14.5 0.00 2.44 1.07 56 1012.5
20260506160652 14 285 4.8 14.5 0.00 2.44 1.07 56 1012.4
20260506160121 14 181 4.8 11.3 0.00 2.44 1.07 60 1012.5
20260506160030 13 176 6.4 11.3 0.00 2.44 1.07 58 1012.7
20260506155619 14 180 3.2 9.7 0.00 2.44 1.07 62 1012.5
20260506155051 13 356 3.2 11.3 0.00 2.44 1.07 61 1012.3
20260506154605 13 325 3.2 11.3 0.00 2.44 1.07 58 1012.5
20260506154523 13 325 4.8 11.3 0.00 2.44 1.07 58 1012.3
20260506154221 13 327 4.8 9.7 0.00 2.44 1.07 58 1012.2
20260506153453 13 308 3.2 8.0 0.00 2.44 1.07 61 1012.4
20260506153006 13 290 1.6 8.0 0.00 2.44 1.07 60 1012.8
20260506152928 13 290 3.2 8.0 0.00 2.44 1.07 59 1012.6
20260506152423 13 309 3.2 8.0 0.00 2.44 1.07 62 1012.8
20260506151919 13 259 3.2 9.7 0.00 2.44 1.07 63 1012.7
20260506151607 12 219 1.6 9.7 0.00 2.44 1.07 62 1012.8
20260506151417 13 217 4.8 9.7 0.00 2.44 1.07 62 1012.5
20260506150852 13 218 4.8 9.7 0.00 2.44 1.07 63 1012.1
20260506150322 13 239 3.2 11.3 0.00 2.44 1.07 65 1012.0
20260506150031 12 238 3.2 9.7 0.00 2.44 1.07 64 1012.3
20260506150023 12 286 3.2 9.7 0.00 2.44 1.07 64 1011.9
20260506145228 12 307 3.2 9.7 0.00 2.44 1.07 68 1011.8
20260506144724 12 278 4.8 12.9 0.00 2.44 1.07 69 1011.7
20260506144608 11 347 1.6 12.9 0.00 2.44 1.07 70 1011.8
20260506144221 11 302 4.8 12.9 0.00 2.44 1.07 70 1011.6
20260506143721 11 282 3.2 12.9 0.00 2.44 1.07 73 1011.4
20260506143408 11 292 3.2 9.7 0.00 2.44 1.07 76 1011.4
20260506143059 10 289 1.6 8.0 0.00 2.44 1.07 77 1011.5
20260506142650 10 273 3.2 12.9 0.00 2.44 1.07 77 1011.4
20260506142125 10 273 3.2 12.9 0.00 2.44 1.07 76 1011.3
20260506141815 10 289 3.2 8.0 0.00 2.44 1.07 79 1011.6
20260506141503 10 290 1.6 6.4 0.00 2.44 1.07 79 1011.7
20260506141057 10 273 3.2 8.0 0.00 2.44 1.07 79 1011.6
20260506141040 10 291 3.2 9.7 0.00 2.44 1.07 79 1011.4
20260506140048 10 273 3.2 9.7 0.00 2.44 1.07 81 1011.3
20260506140025 10 273 1.6 9.7 0.00 2.44 1.07 81 1011.5
20260506135520 10 287 3.2 17.7 0.00 2.44 1.07 81 1011.3
20260506135017 9 284 3.2 17.7 0.00 2.44 1.07 82 1011.2
20260506134506 9 284 1.6 8.0 0.00 2.44 1.07 83 1011.3
20260506134450 9 285 1.6 8.0 0.00 2.44 1.07 83 1011.2
20260506133950 9 273 1.6 8.0 0.00 2.44 1.07 84 1011.3
20260506133438 8 273 0.0 3.2 0.00 2.44 1.07 85 1011.3
20260506133050 8 288 0.0 3.2 0.00 2.44 1.07 86 1011.4
20260506132934 8 288 0.0 4.8 0.00 2.44 1.07 86 1011.3
20260506132437 8 287 0.0 4.8 0.00 2.44 1.07 88 1011.3
20260506131909 8 282 0.0 4.8 0.00 2.44 1.07 88 1011.1
20260506131607 8 278 0.0 3.2 0.00 2.44 1.07 88 1011.1
20260506131408 8 278 0.0 4.8 0.00 2.44 1.07 89 1010.9
20260506131106 8 278 0.0 4.8 0.00 2.44 1.07 89 1010.9
20260506130316 8 278 0.0 4.8 0.00 2.44 1.07 89 1011.2
20260506130030 8 278 0.0 4.8 0.00 2.44 1.07 89 1011.3
20260506125751 8 278 0.0 4.8 0.00 2.44 1.07 90 1011.2
20260506125227 8 278 1.6 14.5 0.00 2.44 1.07 90 1011.0
20260506124703 8 273 0.0 14.5 0.00 2.44 1.07 91 1010.8
20260506124501 7 288 0.0 3.2 0.00 2.44 1.07 91 1010.9
20260506124205 8 287 0.0 4.8 0.00 2.44 1.07 92 1010.7
20260506123855 7 287 0.0 4.8 0.00 2.44 1.07 92 1010.7
20260506123137 7 278 0.0 4.8 0.00 2.44 1.07 93 1010.8
20260506123013 7 278 0.0 3.2 0.00 2.44 1.07 93 1010.9
20260506122616 7 278 0.0 4.8 0.00 2.44 1.07 93 1010.6
20260506122057 7 288 0.0 8.0 0.00 2.44 1.07 94 1010.6
20260506121559 7 283 1.6 8.0 0.00 2.44 1.07 94 1010.6
20260506121529 7 283 0.0 8.0 0.00 2.44 1.07 94 1010.7
20260506121042 7 289 1.6 11.3 0.00 2.44 1.07 94 1010.5
20260506121007 7 278 1.6 11.3 0.00 2.44 1.07 94 1010.1
20260506120059 7 282 0.0 4.8 0.00 2.44 1.07 94 1010.2
20260506120020 7 282 0.0 4.8 0.00 2.44 1.07 94 1010.2
20260506115456 7 282 0.0 3.2 0.00 2.44 1.07 94 1010.3
20260506114957 7 282 0.0 4.8 0.00 2.44 1.07 95 1010.0
20260506114602 6 282 0.0 4.8 0.00 2.49 1.07 94 1009.9
20260506114428 6 282 0.0 4.8 0.00 2.44 1.07 94 1009.7
20260506113928 6 282 1.6 8.0 0.00 2.46 1.07 94 1009.6
20260506113648 6 282 1.6 8.0 0.00 2.46 1.07 94 1009.3
20260506113102 6 282 0.0 6.4 0.00 2.49 1.07 95 1009.3
20260506112922 6 282 1.6 8.0 0.00 2.49 1.07 95 1009.4
20260506112420 6 282 1.6 8.0 0.00 2.49 1.07 95 1009.3
20260506111922 6 282 1.6 8.0 0.00 2.49 1.07 95 1009.2
20260506111529 6 278 1.6 6.4 0.00 2.49 1.07 95 1009.1
20260506111358 6 282 0.0 6.4 0.00 2.49 1.07 95 1009.2
20260506110900 6 282 1.6 6.4 0.00 2.49 1.07 95 1009.2
20260506110346 6 288 1.6 6.4 0.00 2.49 1.07 95 1009.3
20260506110104 6 288 1.6 6.4 0.00 2.49 1.07 95 1009.4
20260506105812 6 282 1.6 6.4 0.00 2.49 1.07 95 1009.4
20260506105248 6 282 0.0 4.8 0.00 2.49 1.07 95 1009.1
20260506104743 6 282 0.0 4.8 0.00 2.49 1.07 95 1008.5
20260506104708 6 288 0.0 3.2 0.00 2.49 1.07 95 1008.5
20260506104517 6 282 0.0 4.8 0.00 2.67 1.07 95 1008.6
20260506103659 6 287 0.0 3.2 0.00 2.49 1.07 95 1008.7
20260506103139 6 288 0.0 4.8 0.00 2.49 1.07 95 1009.0
20260506103022 6 288 0.0 4.8 0.00 2.67 1.07 95 1009.0
20260506102622 6 287 0.0 4.8 0.00 2.49 1.07 95 1009.1
20260506102102 6 289 0.0 4.8 0.00 2.51 1.07 95 1009.1
20260506101559 6 289 0.0 4.8 0.00 2.54 1.07 95 1008.6
20260506101529 6 289 0.0 3.2 0.00 2.67 1.07 95 1008.6
20260506101253 6 289 0.0 4.8 0.00 2.59 1.07 95 1008.3
20260506100529 6 289 0.0 6.4 0.00 2.64 1.07 95 1007.9
20260506100040 6 288 0.0 6.4 0.00 2.67 1.07 95 1008.0
20260506100031 6 289 0.0 6.4 0.00 2.67 1.07 95 1008.0
20260506095530 6 282 0.0 1.6 0.00 2.72 1.07 95 1008.1
20260506095029 6 282 0.0 1.6 0.00 2.72 1.07 95 1008.2
20260506094608 6 282 0.0 1.6 0.00 2.79 1.07 95 1008.2
20260506094529 6 282 0.0 1.6 0.00 2.74 1.07 95 1008.2
20260506094026 6 282 0.0 1.6 0.00 2.74 1.07 95 1008.1
20260506093526 6 282 0.0 1.6 0.00 2.77 1.07 95 1008.1
20260506093018 6 282 0.0 6.4 0.00 2.79 1.07 95 1008.0
20260506092959 6 282 0.0 6.4 0.00 2.77 1.07 95 1008.1
20260506092947 6 282 0.0 6.4 0.00 2.77 1.07 95 1008.1
20260506092220 6 282 0.0 4.8 0.00 2.79 1.07 95 1007.8
20260506091540 6 282 0.0 3.2 0.00 2.79 1.07 95 1007.6
20260506091455 6 282 0.0 4.8 0.00 2.79 1.07 95 1007.6
20260506090954 6 282 0.0 6.4 0.00 2.79 1.07 95 1007.5
20260506090428 6 282 1.6 6.4 0.00 2.79 1.07 95 1007.5
20260506090104 6 282 0.0 6.4 0.00 2.79 1.07 95 1007.3
20260506085908 6 282 1.6 8.0 0.00 2.79 1.07 95 1007.2
20260506085408 6 283 3.2 8.0 0.03 2.79 1.07 95 1007.3
20260506084906 6 282 3.2 11.3 0.03 2.79 1.07 95 1007.5
20260506084630 6 282 3.2 9.7 0.03 2.79 1.07 95 1007.5
20260506084408 6 282 1.6 11.3 0.05 2.79 1.07 95 1007.7
20260506083905 6 278 0.0 4.8 0.05 2.79 1.07 95 1007.7
20260506083402 6 278 1.6 6.4 0.08 2.79 1.07 95 1007.8
20260506083058 6 289 0.0 6.4 0.10 2.79 1.07 95 1007.6
20260506083031 6 289 0.0 6.4 0.10 2.79 1.07 95 1007.7
20260506082333 6 282 0.0 4.8 0.10 2.79 1.07 95 1007.5
20260506081811 6 282 1.6 6.4 0.13 2.79 1.07 94 1007.4
20260506081544 6 282 0.0 6.4 0.13 2.79 1.07 94 1007.3
20260506081513 6 282 1.6 8.0 0.13 2.79 1.07 94 1007.2
20260506080714 7 282 1.6 8.0 0.15 2.79 1.07 94 1007.3
20260506080212 7 282 3.2 14.5 0.18 2.79 1.07 94 1007.3
20260506073331 8 287 3.2 12.9 0.18 2.69 0.97 95 1007.3
20260506073102 8 287 1.6 12.9 0.18 2.69 0.97 95 1007.2
20260506072602 8 285 1.6 8.0 0.18 2.69 0.97 95 1007.3
20260506072051 8 288 3.2 8.0 0.15 2.67 0.97 95 1007.2
20260506071811 8 282 3.2 16.1 0.15 2.67 0.94 95 1007.1
20260506071529 8 282 1.6 16.1 0.15 2.67 0.94 95 1007.0
20260506071041 8 282 3.2 16.1 0.18 2.67 0.94 95 1007.1
20260506070538 8 288 3.2 11.3 0.18 2.64 0.91 95 1006.9
20260506062415 8 289 3.2 17.7 0.15 2.51 0.79 95 1006.6
20260506061913 8 289 4.8 19.3 0.18 2.51 0.79 95 1006.3
20260506061536 8 282 1.6 19.3 0.20 2.51 0.79 95 1006.0
20260506061408 8 282 6.4 20.9 0.20 2.51 0.79 95 1006.1
20260506060907 8 282 6.4 20.9 0.23 2.49 0.76 95 1006.1
20260506060559 8 282 4.8 19.3 0.25 2.46 0.74 95 1006.2
20260506051048 10 282 3.2 12.9 0.43 2.29 0.56 95 1006.4
20260506050519 10 283 3.2 11.3 0.43 2.21 0.48 95 1006.5
20260506050211 10 282 4.8 14.5 0.46 2.18 0.46 95 1006.0
20260506044943 10 282 4.8 20.9 0.43 2.11 0.38 95 1006.1
20260506044522 10 282 1.6 20.9 0.36 2.03 0.30 95 1005.8
20260506044443 10 278 6.4 20.9 0.33 2.01 0.30 95 1006.3
20260506043916 10 282 6.4 17.7 0.36 2.01 0.28 95 1006.0
20260506043411 10 282 4.8 19.3 0.36 2.01 0.28 95 1005.8
20260506043101 10 282 4.8 20.9 0.33 1.98 0.25 94 1005.7
20260506042910 11 282 4.8 20.9 0.33 1.98 0.25 94 1006.1
20260506042343 11 288 3.2 14.5 0.30 1.96 0.23 94 1006.4
20260506042034 11 282 3.2 9.7 0.28 1.93 0.20 94 1006.2
20260506041609 11 282 1.6 9.7 0.28 1.93 0.20 94 1005.7
20260506041312 11 286 3.2 11.3 0.23 1.88 0.18 94 1006.3
20260506040741 12 288 1.6 11.3 0.15 1.80 0.08 94 1006.2
20260506040242 12 288 1.6 4.8 0.10 1.75 0.03 94 1005.9
20260506040100 12 288 1.6 4.8 0.08 1.73 0.00 94 1005.4
20260506035712 12 290 1.6 6.4 0.10 1.73 1.73 94 1005.7
20260506035214 13 273 1.6 6.4 0.08 1.70 1.70 93 1005.6
20260506034650 14 273 1.6 4.8 0.08 1.68 1.68 93 1005.7
20260506034506 14 290 1.6 4.8 0.08 1.68 1.68 94 1005.4
20260506034145 15 286 0.0 3.2 0.08 1.65 1.65 96 1005.8
20260506033910 15 286 0.0 4.8 0.08 1.65 1.65 96 1005.8
20260506033356 15 286 0.0 6.4 0.10 1.65 1.65 95 1005.7
20260506033048 15 286 1.6 6.4 0.13 1.65 1.65 95 1005.7
20260506033017 15 286 0.0 6.4 0.10 1.65 1.65 95 1005.3
20260506032045 15 286 1.6 6.4 0.15 1.65 1.65 96 1005.8
20260506031536 15 286 1.6 6.4 0.15 1.65 1.65 95 1005.4
20260506031518 15 286 0.0 6.4 0.15 1.65 1.65 95 1005.8
20260506031020 15 286 0.0 4.8 0.15 1.65 1.65 95 1006.0
20260506030453 15 286 0.0 4.8 0.18 1.65 1.65 96 1006.0
20260506030056 15 286 0.0 4.8 0.18 1.65 1.65 95 1005.6
20260506025927 15 286 0.0 4.8 0.18 1.63 1.63 95 1006.1
20260506025645 15 286 1.6 8.0 0.20 1.63 1.63 95 1006.1
20260506024907 15 286 1.6 8.0 0.20 1.60 1.60 95 1006.2
20260506024608 15 286 1.6 8.0 0.23 1.60 1.60 95 1005.9
20260506024407 15 287 1.6 4.8 0.23 1.60 1.60 95 1006.3
20260506024112 15 288 1.6 8.0 0.20 1.57 1.57 95 1006.6
20260506023549 15 289 0.0 6.4 0.18 1.55 1.55 95 1006.7
20260506023108 15 291 0.0 3.2 0.18 1.55 1.55 95 1006.3
20260506023023 15 291 0.0 3.2 0.18 1.55 1.55 95 1006.9
20260506022243 15 273 1.6 4.8 0.15 1.52 1.52 95 1006.9
20260506021748 15 290 1.6 6.4 0.13 1.50 1.50 95 1006.9
20260506021606 15 291 0.0 6.4 0.13 1.50 1.50 95 1006.5
20260506021226 15 273 1.6 6.4 0.15 1.50 1.50 95 1006.9
20260506020729 15 273 1.6 6.4 0.18 1.50 1.50 95 1006.8
20260506020442 15 290 1.6 6.4 0.20 1.47 1.47 95 1006.7
20260506020104 15 290 0.0 8.0 0.20 1.45 1.45 95 1006.3
20260506015724 15 289 1.6 8.0 0.23 1.45 1.45 95 1006.8
20260506015225 15 290 1.6 8.0 0.20 1.40 1.40 95 1006.9
20260506014721 15 290 1.6 4.8 0.20 1.37 1.37 95 1006.8
20260506014559 15 290 0.0 4.8 0.20 1.37 1.37 95 1006.4
20260506014159 15 289 0.0 4.8 0.23 1.37 1.37 95 1006.8
20260506013638 15 289 0.0 3.2 0.23 1.37 1.37 95 1006.6
20260506013400 15 290 0.0 1.6 0.23 1.37 1.37 95 1006.6
20260506013014 15 273 0.0 1.6 0.23 1.37 1.37 95 1006.1
20260506012622 15 291 0.0 1.6 0.23 1.37 1.37 95 1006.5
20260506012103 15 290 0.0 0.0 0.25 1.37 1.37 95 1006.5
20260506011605 15 273 0.0 3.2 0.23 1.35 1.37 95 1006.5
20260506011521 15 290 0.0 0.0 0.23 1.35 1.35 95 1006.0
20260506011106 15 273 0.0 3.2 0.23 1.35 1.35 95 1006.5
20260506010539 15 290 0.0 4.8 0.20 1.30 1.30 95 1006.7
20260506010019 15 290 1.6 3.2 0.15 1.24 1.27 95 1006.7
20260506010005 15 291 0.0 4.8 0.18 1.27 1.27 95 1006.2
20260506005513 15 291 1.6 4.8 0.13 1.22 1.22 95 1006.7
20260506005011 15 291 1.6 4.8 0.10 1.19 1.19 95 1006.7
20260506004737 15 291 1.6 8.0 0.10 1.17 1.17 95 1006.5
20260506004559 15 292 1.6 8.0 0.10 1.17 1.17 95 1006.0
20260506004011 16 294 0.0 8.0 0.08 1.14 1.14 95 1006.3
20260506003444 16 291 1.6 3.2 0.08 1.14 1.14 94 1006.3
20260506003015 15 273 0.0 3.2 0.08 1.14 1.14 94 1005.7
20260506002940 15 291 0.0 3.2 0.08 1.14 1.14 94 1006.4
20260506002435 16 291 0.0 1.6 0.10 1.14 1.14 94 1006.2
20260506001916 16 290 0.0 3.2 0.08 1.12 1.12 94 1006.2
20260506001637 16 291 0.0 3.2 0.08 1.12 1.12 94 1006.1
20260506001609 15 290 0.0 1.6 0.08 1.12 1.12 94 1005.6
20260506000851 16 290 1.6 8.0 0.08 1.12 1.12 94 1005.9
20260506000605 16 290 1.6 8.0 0.05 1.09 1.09 94 1006.0
20260506000008 15 289 1.6 8.0 0.05 1.09 1.09 94 1005.5
20260505235842 16 288 3.2 8.0 0.05 1.09 1.09 94 1006.0
20260505235338 16 289 3.2 8.0 0.05 1.09 1.09 94 1006.1
20260505234838 16 290 3.2 9.7 0.03 1.07 1.07 94 1006.0
20260505234547 15 273 1.6 9.7 0.03 1.07 1.07 94 1005.6
20260505234309 16 273 3.2 9.7 0.03 1.07 1.07 94 1006.2
20260505233808 16 273 3.2 9.7 0.03 1.07 1.07 94 1006.3
20260505233245 16 290 3.2 9.7 0.03 1.07 1.07 94 1006.3
20260505233025 15 288 1.6 6.4 0.03 1.07 1.07 94 1005.8
20260505232732 16 286 3.2 11.3 0.00 1.04 1.04 94 1006.4
20260505232458 16 286 3.2 12.9 0.00 1.04 1.04 94 1006.4
20260505231734 16 287 3.2 6.4 0.00 1.04 1.04 94 1006.4
20260505231555 16 287 1.6 6.4 0.00 1.04 1.04 94 1005.8
20260505231435 16 288 3.2 11.3 0.03 1.04 1.04 94 1006.3
20260505230702 16 288 4.8 11.3 0.03 1.04 1.04 94 1006.4
20260505230200 16 290 6.4 19.3 0.03 1.04 1.04 94 1006.4
20260505230109 16 288 4.8 19.3 0.03 1.04 1.04 94 1005.9
20260505225859 16 288 4.8 19.3 0.03 1.04 1.04 94 1006.5
20260505225339 16 290 6.4 14.5 0.03 1.04 1.04 94 1006.6
20260505224543 16 290 4.8 14.5 0.03 1.04 1.04 94 1006.7
20260505224526 16 290 6.4 14.5 0.03 1.04 1.04 94 1006.1
20260505224015 16 290 3.2 12.9 0.05 1.04 1.04 94 1006.7
20260505223451 16 289 3.2 14.5 0.05 1.04 1.04 94 1006.8
20260505223100 16 290 1.6 14.5 0.08 1.04 1.04 94 1006.3
20260505222924 16 289 4.8 14.5 0.08 1.04 1.04 94 1006.8
20260505222419 16 289 6.4 17.7 0.08 1.04 1.04 94 1006.8
20260505221919 16 288 6.4 17.7 0.10 1.04 1.04 94 1006.9
20260505221545 16 288 6.4 17.7 0.10 1.04 1.04 94 1006.4
20260505221353 16 289 6.4 16.1 0.10 1.04 1.04 94 1007.0
20260505220828 16 290 6.4 14.5 0.08 1.02 1.02 94 1007.1
20260505220259 16 290 4.8 14.5 0.08 1.02 1.02 94 1007.1
20260505220039 16 290 4.8 14.5 0.08 1.02 1.02 94 1006.6
20260505215733 16 292 4.8 14.5 0.08 1.02 1.02 94 1007.2
20260505215210 16 293 4.8 14.5 0.08 1.02 1.02 94 1007.2
20260505214642 16 290 6.4 16.1 0.08 1.02 1.02 94 1007.2
20260505214507 16 292 4.8 16.1 0.08 1.02 1.02 94 1006.6
20260505214115 16 291 6.4 16.1 0.05 0.99 0.99 94 1007.2
20260505213549 16 288 4.8 12.9 0.05 0.99 0.99 94 1007.2
20260505213022 16 288 6.4 19.3 0.05 0.97 0.97 94 1007.2
20260505213008 16 288 1.6 19.3 0.05 0.97 0.97 94 1006.7
20260505212507 16 288 6.4 19.3 0.05 0.97 0.97 94 1007.2
20260505211949 16 286 4.8 14.5 0.03 0.94 0.97 94 1007.2
20260505211532 16 286 6.4 14.5 0.03 0.94 0.94 94 1006.6
20260505211453 16 286 4.8 14.5 0.03 0.94 0.94 94 1007.3
20260505210925 16 288 4.8 14.5 0.03 0.94 0.94 94 1007.3
20260505210356 16 286 4.8 14.5 0.05 0.94 0.94 94 1007.3
20260505210044 16 286 3.2 16.1 0.05 0.94 0.94 94 1006.7
20260505205856 16 287 4.8 16.1 0.08 0.94 0.94 94 1007.3
20260505205329 16 287 6.4 14.5 0.08 0.94 0.94 94 1007.2
20260505204803 16 286 6.4 17.7 0.10 0.94 0.94 93 1007.2
20260505204512 16 286 8.0 17.7 0.10 0.94 0.94 93 1006.7
20260505204235 16 287 3.2 12.9 0.13 0.94 0.94 93 1007.3
20260505203735 16 290 3.2 12.9 0.15 0.94 0.94 93 1007.3
20260505203207 16 273 3.2 12.9 0.28 0.91 0.91 93 1007.3
20260505203100 16 291 1.6 12.9 0.30 0.91 0.91 93 1006.8
20260505202908 16 290 4.8 14.5 0.46 0.91 0.91 93 1007.3